Tracking 29892 objects as of 21-Nov-2024
HD Live streaming from Space Station
objects crossing your sky now

STARLINK-1479

Track STARLINK-1479 now!
10-day predictions
STARLINK-1479 is classified as:


NORAD ID: 45740
Int'l Code: 2020-038L
Perigee: 477.6 km
Apogee: 479.2 km
Inclination: 53.1 °
Period: 94.0 minutes
Semi major axis: 6849 km
RCS: Unknown
Launch date: June 13, 2020
Source: United States (US)
Launch site: AIR FORCE EASTERN TEST RANGE (AFETR)
Your satellite tracking list
Your tracking list is empty




NASA's NSSDC Master Catalog

Two Line Element Set (TLE):
1 45740U 20038L   24325.91668981  .01044698  00000-0  31057-1 0  9996
2 45740  53.0529 202.0626 0001151 104.3884 115.2556 15.31516438  5782
Source of the keplerian elements: AFSPC